Time,TemperatureF,DewpointF,PressureIn,WindDirection,WindDirectionDegrees,WindSpeedMPH,WindSpeedGustMPH,Humidity,HourlyPrecipIn,Conditions,Clouds,dailyrainin,SoftwareType,DateUTC
2013-06-19 00:08:00,60.5,57.0,29.96,East,100,0.0,1.0,89,0.00,,,0.00,weatherlink.com 1.10,2013-06-19 04:08:00,
2013-06-19 00:23:00,60.4,57.0,29.96,NE,54,0.0,2.0,89,0.00,,,0.00,weatherlink.com 1.10,2013-06-19 04:23:00,
2013-06-19 00:38:00,60.1,57.0,29.96,East,89,0.0,0.0,89,0.00,,,0.00,weatherlink.com 1.10,2013-06-19 04:38:00,
2013-06-19 00:53:00,60.0,57.0,29.96,East,100,0.0,0.0,88,0.00,,,0.00,weatherlink.com 1.10,2013-06-19 04:53:00,
2013-06-19 01:08:00,60.3,57.0,29.96,East,100,0.0,0.0,88,0.00,,,0.00,weatherlink.com 1.10,2013-06-19 05:08:00,
2013-06-19 01:23:00,60.7,57.0,29.96,NNE,13,0.0,1.0,87,0.00,,,0.00,weatherlink.com 1.10,2013-06-19 05:23:00,
2013-06-19 01:38:00,60.5,57.0,29.96,ENE,58,0.0,0.0,88,0.00,,,0.00,weatherlink.com 1.10,2013-06-19 05:38:00,
2013-06-19 01:53:00,60.5,57.0,29.96,NE,41,0.0,1.0,88,0.00,,,0.00,weatherlink.com 1.10,2013-06-19 05:53:00,
2013-06-19 02:08:00,60.5,57.0,29.96,SSW,212,0.0,1.0,88,0.00,,,0.00,weatherlink.com 1.10,2013-06-19 06:08:00,
2013-06-19 02:23:00,60.4,57.0,29.96,SW,229,0.0,1.0,88,0.00,,,0.00,weatherlink.com 1.10,2013-06-19 06:23:00,
2013-06-19 02:38:00,60.1,57.0,29.96,West,270,0.0,0.0,89,0.00,,,0.00,weatherlink.com 1.10,2013-06-19 06:38:00,
2013-06-19 02:53:00,59.5,57.0,29.96,WSW,241,0.0,0.0,90,0.00,,,0.00,weatherlink.com 1.10,2013-06-19 06:53:00,
2013-06-19 03:08:00,59.3,56.0,29.97,SW,224,0.0,0.0,89,0.00,,,0.00,weatherlink.com 1.10,2013-06-19 07:08:00,
2013-06-19 03:23:00,59.8,57.0,29.97,WNW,295,0.0,1.0,89,0.00,,,0.00,weatherlink.com 1.10,2013-06-19 07:23:00,
2013-06-19 03:38:00,59.9,57.0,29.97,NNE,23,0.0,1.0,90,0.00,,,0.00,weatherlink.com 1.10,2013-06-19 07:38:00,
2013-06-19 03:53:00,59.9,57.0,29.97,NE,40,0.0,1.0,90,0.00,,,0.00,weatherlink.com 1.10,2013-06-19 07:53:00,
2013-06-19 04:08:00,59.9,57.0,29.97,North,4,0.0,1.0,91,0.00,,,0.00,weatherlink.com 1.10,2013-06-19 08:08:00,
2013-06-19 04:23:00,59.8,57.0,29.96,WSW,253,0.0,0.0,91,0.00,,,0.00,weatherlink.com 1.10,2013-06-19 08:23:00,
2013-06-19 04:38:00,59.6,57.0,29.96,WSW,253,0.0,0.0,91,0.00,,,0.00,weatherlink.com 1.10,2013-06-19 08:38:00,
2013-06-19 04:53:00,59.3,56.0,29.96,West,263,1.0,1.0,90,0.00,,,0.00,weatherlink.com 1.10,2013-06-19 08:53:00,
2013-06-19 05:08:00,59.3,56.0,29.97,West,263,0.0,0.0,90,0.00,,,0.00,weatherlink.com 1.10,2013-06-19 09:08:00,
2013-06-19 05:23:00,59.2,56.0,29.97,West,263,0.0,0.0,90,0.00,,,0.00,weatherlink.com 1.10,2013-06-19 09:23:00,
2013-06-19 05:38:00,59.1,56.0,29.98,West,263,0.0,0.0,90,0.00,,,0.00,weatherlink.com 1.10,2013-06-19 09:38:00,
2013-06-19 05:53:00,59.0,56.0,29.99,West,263,0.0,0.0,90,0.00,,,0.00,weatherlink.com 1.10,2013-06-19 09:53:00,
2013-06-19 06:08:00,59.1,56.0,29.99,West,263,0.0,1.0,90,0.00,,,0.00,weatherlink.com 1.10,2013-06-19 10:08:00,
2013-06-19 06:24:00,59.2,56.0,30.00,WNW,299,0.0,2.0,90,0.00,,,0.00,weatherlink.com 1.10,2013-06-19 10:24:00,
2013-06-19 06:39:00,59.4,57.0,30.00,NW,307,0.0,0.0,91,0.00,,,0.00,weatherlink.com 1.10,2013-06-19 10:39:00,
2013-06-19 06:54:00,59.6,57.0,30.01,NW,308,0.0,0.0,91,0.00,,,0.00,weatherlink.com 1.10,2013-06-19 10:54:00,
2013-06-19 07:09:00,59.9,57.0,30.02,NW,308,0.0,0.0,91,0.00,,,0.00,weatherlink.com 1.10,2013-06-19 11:09:00,
2013-06-19 07:24:00,60.3,58.0,30.02,NW,307,0.0,1.0,92,0.00,,,0.00,weatherlink.com 1.10,2013-06-19 11:24:00,
2013-06-19 07:39:00,60.6,58.0,30.03,NW,308,0.0,0.0,92,0.00,,,0.00,weatherlink.com 1.10,2013-06-19 11:39:00,
2013-06-19 07:54:00,61.1,59.0,30.03,NW,308,0.0,0.0,92,0.00,,,0.00,weatherlink.com 1.10,2013-06-19 11:54:00,
2013-06-19 08:09:00,61.5,59.0,30.03,NW,307,0.0,1.0,92,0.00,,,0.00,weatherlink.com 1.10,2013-06-19 12:09:00,
2013-06-19 08:24:00,62.4,60.0,30.04,WNW,292,0.0,1.0,91,0.00,,,0.00,weatherlink.com 1.10,2013-06-19 12:24:00,
2013-06-19 08:39:00,63.9,61.0,30.04,WNW,293,0.0,1.0,89,0.00,,,0.00,weatherlink.com 1.10,2013-06-19 12:39:00,
2013-06-19 08:54:00,66.5,61.0,30.04,ENE,65,0.0,1.0,81,0.00,,,0.00,weatherlink.com 1.10,2013-06-19 12:54:00,
2013-06-19 09:09:00,67.0,60.0,30.05,ENE,65,1.0,2.0,77,0.00,,,0.00,weatherlink.com 1.10,2013-06-19 13:09:00,
2013-06-19 09:24:00,68.8,62.0,30.05,NNW,330,0.0,2.0,78,0.00,,,0.00,weatherlink.com 1.10,2013-06-19 13:24:00,
2013-06-19 09:39:00,69.4,61.0,30.05,WSW,240,0.0,3.0,74,0.00,,,0.00,weatherlink.com 1.10,2013-06-19 13:39:00,
2013-06-19 09:54:00,70.4,61.0,30.04,ENE,63,4.0,5.0,71,0.00,,,0.00,weatherlink.com 1.10,2013-06-19 13:54:00,
2013-06-19 10:09:00,70.5,61.0,30.05,East,89,1.0,5.0,73,0.00,,,0.00,weatherlink.com 1.10,2013-06-19 14:09:00,
2013-06-19 10:24:00,70.8,62.0,30.05,SW,225,1.0,4.0,73,0.00,,,0.00,weatherlink.com 1.10,2013-06-19 14:24:00,
2013-06-19 10:39:00,70.7,62.0,30.05,SE,139,1.0,5.0,73,0.00,,,0.00,weatherlink.com 1.10,2013-06-19 14:39:00,
2013-06-19 10:54:00,72.7,62.0,30.05,ENE,58,5.0,5.0,69,0.00,,,0.00,weatherlink.com 1.10,2013-06-19 14:54:00,
2013-06-19 11:09:00,73.7,63.0,30.05,NNE,29,3.0,3.0,70,0.00,,,0.00,weatherlink.com 1.10,2013-06-19 15:09:00,
2013-06-19 11:24:00,72.4,63.0,30.06,North,8,2.0,5.0,72,0.00,,,0.00,weatherlink.com 1.10,2013-06-19 15:24:00,
2013-06-19 11:39:00,72.6,62.0,30.06,ESE,123,2.0,9.0,69,0.00,,,0.00,weatherlink.com 1.10,2013-06-19 15:39:00,
2013-06-19 11:54:00,71.5,62.0,30.07,ENE,65,2.0,8.0,73,0.00,,,0.00,weatherlink.com 1.10,2013-06-19 15:54:00,
2013-06-19 12:09:00,72.2,64.0,30.07,SW,228,3.0,7.0,74,0.00,,,0.00,weatherlink.com 1.10,2013-06-19 16:09:00,
2013-06-19 12:24:00,72.7,63.0,30.07,SE,125,4.0,5.0,71,0.00,,,0.00,weatherlink.com 1.10,2013-06-19 16:24:00,
2013-06-19 12:39:00,72.4,63.0,30.07,ESE,109,3.0,6.0,72,0.00,,,0.00,weatherlink.com 1.10,2013-06-19 16:39:00,
2013-06-19 12:54:00,72.7,63.0,30.07,SSE,166,3.0,7.0,71,0.00,,,0.00,weatherlink.com 1.10,2013-06-19 16:54:00,
2013-06-19 13:09:00,72.2,63.0,30.07,East,97,4.0,6.0,72,0.00,,,0.00,weatherlink.com 1.10,2013-06-19 17:09:00,
2013-06-19 13:24:00,72.1,63.0,30.07,South,169,2.0,7.0,74,0.00,,,0.00,weatherlink.com 1.10,2013-06-19 17:24:00,
2013-06-19 13:39:00,72.2,64.0,30.07,SE,136,3.0,6.0,75,0.00,,,0.00,weatherlink.com 1.10,2013-06-19 17:39:00,
2013-06-19 13:54:00,71.9,63.0,30.07,East,79,3.0,5.0,73,0.00,,,0.00,weatherlink.com 1.10,2013-06-19 17:54:00,
2013-06-19 14:09:00,71.6,63.0,30.07,ENE,77,2.0,5.0,75,0.00,,,0.00,weatherlink.com 1.10,2013-06-19 18:09:00,
2013-06-19 14:24:00,72.3,64.0,30.07,SSE,157,2.0,4.0,75,0.00,,,0.00,weatherlink.com 1.10,2013-06-19 18:24:00,
2013-06-19 14:40:00,72.3,64.0,30.06,ESE,118,4.0,6.0,74,0.00,,,0.00,weatherlink.com 1.10,2013-06-19 18:40:00,
2013-06-19 14:55:00,72.7,64.0,30.06,ESE,118,4.0,6.0,74,0.00,,,0.00,weatherlink.com 1.10,2013-06-19 18:55:00,
2013-06-19 15:10:00,72.9,65.0,30.05,SSE,148,2.0,7.0,75,0.00,,,0.00,weatherlink.com 1.10,2013-06-19 19:10:00,
2013-06-19 15:25:00,72.3,64.0,30.05,SSE,148,2.0,9.0,75,0.00,,,0.00,weatherlink.com 1.10,2013-06-19 19:25:00,
2013-06-19 15:40:00,72.4,64.0,30.05,SE,125,3.0,7.0,76,0.00,,,0.00,weatherlink.com 1.10,2013-06-19 19:40:00,
2013-06-19 15:55:00,74.0,64.0,30.05,SE,134,2.0,7.0,71,0.00,,,0.00,weatherlink.com 1.10,2013-06-19 19:55:00,
2013-06-19 16:10:00,74.4,64.0,30.05,SW,222,4.0,8.0,71,0.00,,,0.00,weatherlink.com 1.10,2013-06-19 20:10:00,
2013-06-19 16:25:00,74.6,63.0,30.05,East,96,4.0,7.0,67,0.00,,,0.00,weatherlink.com 1.10,2013-06-19 20:25:00,
2013-06-19 16:40:00,74.4,64.0,30.05,East,84,4.0,11.0,69,0.00,,,0.00,weatherlink.com 1.10,2013-06-19 20:40:00,
2013-06-19 16:55:00,73.4,63.0,30.05,ENE,66,5.0,7.0,70,0.00,,,0.00,weatherlink.com 1.10,2013-06-19 20:55:00,
2013-06-19 17:10:00,72.9,64.0,30.06,SSW,211,0.0,5.0,74,0.00,,,0.00,weatherlink.com 1.10,2013-06-19 21:10:00,
2013-06-19 17:25:00,73.8,64.0,30.05,ENE,68,0.0,4.0,71,0.00,,,0.00,weatherlink.com 1.10,2013-06-19 21:25:00,
2013-06-19 17:40:00,73.2,64.0,30.05,SSW,198,4.0,5.0,73,0.00,,,0.00,weatherlink.com 1.10,2013-06-19 21:40:00,
2013-06-19 17:55:00,73.0,64.0,30.06,NE,56,4.0,5.0,74,0.00,,,0.00,weatherlink.com 1.10,2013-06-19 21:55:00,
2013-06-19 18:10:00,71.8,64.0,30.06,SSE,153,0.0,4.0,76,0.00,,,0.00,weatherlink.com 1.10,2013-06-19 22:10:00,
2013-06-19 18:25:00,72.0,64.0,30.06,SSE,165,2.0,6.0,77,0.00,,,0.00,weatherlink.com 1.10,2013-06-19 22:25:00,
2013-06-19 18:40:00,71.8,65.0,30.06,SSE,152,2.0,4.0,78,0.00,,,0.00,weatherlink.com 1.10,2013-06-19 22:40:00,
2013-06-19 18:55:00,71.0,64.0,30.07,ENE,70,2.0,4.0,79,0.00,,,0.00,weatherlink.com 1.10,2013-06-19 22:55:00,
2013-06-19 19:10:00,70.9,64.0,30.07,SSW,201,1.0,4.0,80,0.00,,,0.00,weatherlink.com 1.10,2013-06-19 23:10:00,
2013-06-19 19:25:00,70.4,64.0,30.07,SSE,163,2.0,6.0,80,0.00,,,0.00,weatherlink.com 1.10,2013-06-19 23:25:00,
2013-06-19 19:40:00,69.8,64.0,30.08,South,177,1.0,5.0,82,0.00,,,0.00,weatherlink.com 1.10,2013-06-19 23:40:00,
2013-06-19 19:55:00,69.2,64.0,30.09,SE,139,2.0,4.0,84,0.00,,,0.00,weatherlink.com 1.10,2013-06-19 23:55:00,
2013-06-19 20:10:00,68.6,64.0,30.09,SE,124,1.0,2.0,84,0.00,,,0.00,weatherlink.com 1.10,2013-06-20 00:10:00,
2013-06-19 20:25:00,68.0,63.0,30.09,East,81,0.0,2.0,85,0.00,,,0.00,weatherlink.com 1.10,2013-06-20 00:25:00,
2013-06-19 20:40:00,67.8,64.0,30.10,ENE,73,1.0,3.0,86,0.00,,,0.00,weatherlink.com 1.10,2013-06-20 00:40:00,
2013-06-19 20:55:00,67.4,63.0,30.11,East,93,3.0,3.0,86,0.00,,,0.00,weatherlink.com 1.10,2013-06-20 00:55:00,
2013-06-19 21:10:00,66.9,63.0,30.11,ESE,104,0.0,0.0,88,0.00,,,0.00,weatherlink.com 1.10,2013-06-20 01:10:00,
2013-06-19 21:25:00,66.4,63.0,30.12,SSW,209,0.0,1.0,88,0.00,,,0.00,weatherlink.com 1.10,2013-06-20 01:25:00,
2013-06-19 21:40:00,65.5,63.0,30.12,SSW,210,0.0,1.0,90,0.00,,,0.00,weatherlink.com 1.10,2013-06-20 01:40:00,
2013-06-19 21:55:00,64.8,62.0,30.13,SSW,210,0.0,0.0,91,0.00,,,0.00,weatherlink.com 1.10,2013-06-20 01:55:00,
2013-06-19 22:10:00,64.0,61.0,30.14,SSW,200,0.0,1.0,91,0.00,,,0.00,weatherlink.com 1.10,2013-06-20 02:10:00,
2013-06-19 22:25:00,63.1,61.0,30.15,SSW,200,0.0,0.0,91,0.00,,,0.00,weatherlink.com 1.10,2013-06-20 02:25:00,
2013-06-19 22:40:00,62.4,60.0,30.15,SSW,200,0.0,1.0,90,0.00,,,0.00,weatherlink.com 1.10,2013-06-20 02:40:00,
2013-06-19 22:55:00,61.9,59.0,30.16,SSE,153,0.0,0.0,90,0.00,,,0.00,weatherlink.com 1.10,2013-06-20 02:55:00,
2013-06-19 23:10:00,61.3,58.0,30.16,SSE,153,0.0,0.0,90,0.00,,,0.00,weatherlink.com 1.10,2013-06-20 03:10:00,
2013-06-19 23:25:00,61.0,58.0,30.17,SSE,153,0.0,0.0,89,0.00,,,0.00,weatherlink.com 1.10,2013-06-20 03:25:00,
2013-06-19 23:40:00,60.4,58.0,30.17,SSE,153,0.0,0.0,90,0.00,,,0.00,weatherlink.com 1.10,2013-06-20 03:40:00,
2013-06-19 23:55:00,60.1,57.0,30.17,SSE,153,0.0,0.0,89,0.00,,,0.00,weatherlink.com 1.10,2013-06-20 03:55:00,